Date,TemperatureHighF,TemperatureAvgF,TemperatureLowF,DewpointHighF,DewpointAvgF,DewpointLowF,HumidityHigh,HumidityAvg,HumidityLow,PressureMaxIn,PressureMinIn,WindSpeedMaxMPH,WindSpeedAvgMPH,GustSpeedMaxMPH,PrecipitationSumIn
2013-1-1,79,66,54,63,58,50,87,75,55,30.22,30.05,7,1,15,0.00
2013-1-2,79,67,56,69,60,52,87,81,63,30.10,30.00,6,1,12,0.00
2013-1-3,81,69,58,69,62,54,89,81,63,30.14,30.03,7,1,14,0.00
2013-1-4,71,67,62,66,62,58,87,85,83,30.26,30.12,6,1,10,0.07
2013-1-5,79,68,61,67,62,57,87,80,65,30.28,30.16,6,2,11,0.07
2013-1-6,83,71,64,72,65,60,88,82,64,30.20,30.06,5,1,13,0.00
2013-1-7,76,69,64,67,64,59,87,84,75,30.19,30.09,6,2,12,0.17
2013-1-8,84,72,63,71,65,59,88,80,56,30.21,30.11,6,1,13,0.01
2013-1-9,86,76,70,71,67,65,86,76,51,30.27,30.17,7,2,16,0.01
2013-1-10,83,75,67,69,64,61,86,72,47,30.29,30.19,9,2,21,0.00
2013-1-11,83,71,60,69,63,56,87,77,48,30.27,30.13,7,1,15,0.00
2013-1-12,83,73,65,69,65,61,86,76,56,30.19,30.07,8,2,14,0.00
2013-1-13,83,72,64,69,64,60,86,76,54,30.14,30.06,7,1,12,0.00
2013-1-14,81,70,59,65,61,55,87,75,53,30.19,30.11,8,1,13,0.00
2013-1-15,83,70,58,68,61,54,87,76,54,30.15,30.05,5,0,11,0.00
2013-1-16,83,70,59,67,61,55,87,74,48,30.12,30.01,6,1,14,0.00
2013-1-17,81,67,60,70,60,50,87,79,62,30.15,30.01,13,3,22,0.00
2013-1-18,68,58,44,56,48,36,85,71,58,30.31,30.14,6,1,15,0.00
2013-1-19,75,65,58,65,59,54,86,82,69,30.25,30.11,5,2,12,0.00
2013-1-20,78,68,63,67,62,59,87,81,62,30.17,30.03,4,1,8,0.00
2013-1-21,78,67,61,68,61,56,86,82,63,30.10,30.01,7,1,16,0.00
2013-1-22,70,62,56,56,51,42,85,69,49,30.28,30.06,7,2,16,0.00
2013-1-23,74,60,51,48,42,39,69,53,29,30.35,30.25,5,1,14,0.00
2013-1-24,77,59,45,53,44,37,87,63,24,30.34,30.23,5,1,12,0.00
2013-1-25,78,61,47,55,49,43,87,68,40,30.32,30.20,6,1,12,0.00
2013-1-26,79,62,48,55,49,44,86,67,34,30.29,30.17,5,1,10,0.00
2013-1-27,80,66,50,61,54,46,87,68,40,30.30,30.21,8,2,12,0.00
2013-1-28,82,72,60,64,60,55,86,69,49,30.32,30.20,8,1,16,0.00
2013-1-29,85,72,61,68,63,56,87,75,50,30.25,30.10,8,2,17,0.00
2013-1-30,83,72,66,68,65,61,85,77,58,30.11,29.97,14,3,27,0.00
2013-1-31,72,62,48,66,48,36,87,62,37,30.23,29.97,6,2,15,0.12
2013-2-1,70,54,40,42,37,32,84,57,26,30.35,30.23,7,2,17,0.01
2013-2-2,73,54,42,52,43,36,85,68,39,30.29,30.16,6,1,12,0.00
2013-2-3,74,59,48,56,45,33,85,64,25,30.23,30.10,6,1,16,0.00
2013-2-4,73,57,42,50,42,23,88,65,16,30.17,30.04,6,1,13,0.00
2013-2-5,82,63,46,57,51,42,85,67,38,30.10,30.01,5,1,13,0.00
2013-2-6,82,68,54,64,58,50,85,72,46,30.13,30.03,3,0,11,0.00
2013-2-7,82,71,60,65,62,56,86,75,53,30.08,29.94,7,2,16,0.01
2013-2-8,85,72,61,68,61,53,86,71,36,30.09,29.92,8,2,16,0.01
2013-2-9,79,66,54,62,57,50,87,73,48,30.18,30.06,8,2,16,0.00
2013-2-10,82,70,59,63,60,54,86,73,47,30.25,30.14,8,3,17,0.00
2013-2-11,83,71,63,67,62,58,85,75,52,30.21,30.09,8,3,16,0.00
2013-2-12,82,72,61,70,65,57,86,80,68,30.13,29.98,9,2,22,0.00
2013-2-13,83,76,66,72,69,56,86,80,67,30.01,29.91,9,3,21,0.00
2013-2-14,71,63,59,66,58,55,87,84,73,30.04,29.93,8,1,15,2.78
2013-2-15,69,62,59,62,58,55,87,85,75,30.08,29.96,4,0,7,0.24
2013-2-16,70,61,54,57,52,43,86,73,50,30.12,29.94,14,3,24,0.02
2013-2-17,59,50,39,43,29,21,79,47,24,30.35,30.12,7,1,17,0.00
2013-2-18,70,53,36,50,40,29,84,63,43,30.35,30.23,7,1,14,0.00
2013-2-19,77,64,50,63,56,46,86,76,59,30.23,30.10,6,1,16,0.00
2013-2-20,83,67,54,66,57,50,88,73,43,30.13,30.01,5,0,11,0.00
2013-2-21,84,70,59,67,61,54,87,76,54,30.11,30.01,4,0,10,0.00
2013-2-22,84,72,59,71,64,55,87,77,58,30.10,30.00,7,2,17,0.00
2013-2-23,82,74,67,73,68,62,87,82,72,30.04,29.93,13,3,25,0.00
2013-2-24,85,75,68,72,68,64,87,79,57,30.00,29.92,7,1,15,0.00
2013-2-25,83,74,64,73,67,60,88,81,67,29.94,29.80,8,2,18,0.00
2013-2-26,82,74,66,74,69,61,86,83,75,29.91,29.76,15,4,32,0.09
2013-2-27,77,68,62,64,61,57,88,77,61,29.99,29.88,4,1,10,0.01
2013-2-28,75,64,58,58,56,54,85,74,50,30.04,29.93,8,1,15,0.01
2013-3-1,65,61,57,56,49,43,78,67,53,30.03,29.94,6,1,13,0.00
2013-3-2,60,55,51,46,43,40,77,62,49,30.08,30.01,11,2,20,0.00
2013-3-3,61,51,42,46,42,35,86,72,48,30.18,30.00,10,1,24,0.09
2013-3-4,70,52,37,46,39,33,86,65,29,30.25,30.14,5,1,10,0.02
2013-3-5,74,58,40,58,49,36,87,74,48,30.19,30.09,7,1,15,0.00
2013-3-6,72,62,51,61,50,39,86,67,35,30.16,30.01,11,2,19,0.02
2013-3-7,69,54,44,47,41,34,82,62,33,30.24,30.13,7,2,14,0.01
2013-3-8,79,59,42,51,45,37,86,65,23,30.24,30.12,7,1,13,0.00
2013-3-9,79,63,46,53,48,42,87,63,30,30.22,30.11,4,1,11,0.00
2013-3-10,80,67,55,58,53,50,84,64,42,30.18,30.04,8,2,16,0.00
2013-3-11,79,69,58,63,58,53,85,71,51,30.11,29.93,8,2,17,0.00
2013-3-12,73,67,58,67,62,52,85,83,79,30.06,29.90,7,2,19,0.02
2013-3-13,78,66,53,52,44,36,85,51,23,30.19,30.05,6,2,15,0.01
2013-3-14,73,59,48,46,36,24,84,49,16,30.27,30.15,9,2,19,0.00
2013-3-15,74,58,42,46,39,30,85,56,23,30.31,30.15,9,2,14,0.00
2013-3-16,79,61,45,54,46,41,85,63,30,30.21,30.09,6,1,14,0.00
2013-3-17,78,63,49,60,54,45,86,72,52,30.15,30.02,6,1,12,0.00
2013-3-18,78,68,60,69,62,55,85,82,70,30.06,29.93,7,2,14,0.08
2013-3-19,83,71,65,68,64,61,86,79,57,30.02,29.85,12,2,24,0.03
2013-3-20,82,67,60,64,60,56,89,79,43,30.01,29.83,13,1,22,0.16
2013-3-21,76,64,55,60,49,33,87,62,21,29.98,29.87,6,2,15,0.14
2013-3-22,79,64,46,70,55,40,84,73,52,30.00,29.90,10,2,17,0.01
2013-3-23,84,74,67,73,68,63,87,80,65,30.00,29.83,10,2,22,0.01
2013-3-24,82,75,69,74,70,64,86,83,74,29.88,29.70,11,4,36,0.00
2013-3-25,77,69,55,71,52,34,86,59,23,30.06,29.77,9,2,16,0.00
2013-3-26,65,57,48,47,40,33,73,55,38,30.26,30.06,9,3,20,0.00
2013-3-27,67,52,39,46,37,33,84,58,30,30.32,30.21,6,1,14,0.00
2013-3-28,75,56,40,48,39,26,86,59,17,30.32,30.18,7,1,13,0.00
2013-3-29,77,61,45,49,42,36,85,56,23,30.34,30.19,5,1,13,0.00
2013-3-30,81,64,51,55,51,46,86,65,38,30.27,30.14,7,1,16,0.00
2013-3-31,80,67,53,61,55,-100,86,70,44,30.21,30.04,7,2,17,0.00
2013-4-1,83,71,60,68,62,55,87,76,53,30.06,29.99,10,2,18,0.00
2013-4-2,86,73,66,68,64,61,88,75,50,30.11,30.02,6,1,12,0.00
2013-4-3,87,74,63,70,65,58,86,74,47,30.08,29.95,11,2,22,0.00
2013-4-4,80,71,65,72,66,60,87,83,76,30.04,29.87,9,1,20,0.99
2013-4-5,78,69,61,69,62,55,87,79,60,30.02,29.83,9,2,28,0.89
2013-4-6,80,67,58,62,58,54,85,74,48,30.10,29.98,7,1,14,0.01
2013-4-7,85,70,58,64,60,54,87,70,45,30.14,30.04,6,1,18,0.00
2013-4-8,87,74,62,64,59,55,84,63,36,30.13,30.03,6,1,14,0.00
2013-4-9,85,73,61,67,62,56,86,69,43,30.15,30.06,8,2,14,0.00
2013-4-10,88,77,67,73,68,62,85,74,52,30.11,29.97,6,1,14,0.03
2013-4-11,86,78,71,74,70,67,86,78,60,30.01,29.86,10,3,18,0.03
2013-4-12,86,78,74,75,72,69,87,80,65,29.95,29.88,10,2,22,0.00
2013-4-13,89,80,72,72,69,66,84,72,51,29.98,29.88,7,2,17,0.00
2013-4-14,88,78,68,75,70,64,87,76,57,29.98,29.86,9,2,20,0.00
2013-4-15,91,77,65,75,68,60,85,73,54,30.08,29.93,8,2,15,0.29
2013-4-16,92,78,69,73,69,65,88,74,46,30.14,30.03,10,2,18,0.03
2013-4-17,88,77,67,69,66,63,87,70,46,30.14,30.01,7,1,13,0.00
2013-4-18,90,78,69,73,68,64,86,73,49,30.06,29.95,6,2,18,0.12
2013-4-19,88,79,71,74,70,67,87,77,56,30.03,29.95,8,3,19,0.12
2013-4-20,88,77,68,74,69,64,87,78,56,30.14,29.97,7,2,13,0.03
2013-4-21,87,73,62,72,65,58,88,79,55,30.13,29.98,7,1,14,0.09
2013-4-22,85,74,67,70,66,63,88,78,58,30.10,29.95,6,2,15,0.17
2013-4-23,86,74,66,69,64,61,86,72,47,30.11,30.00,8,3,16,0.14
2013-4-24,87,76,64,68,64,59,85,67,43,30.15,30.05,7,1,12,0.04
2013-4-25,87,76,63,69,64,57,86,67,37,30.21,30.09,5,1,12,0.00
2013-4-26,87,75,61,66,63,56,86,68,48,30.24,30.14,7,2,16,0.00
2013-4-27,86,75,65,67,63,60,87,67,44,30.22,30.07,7,2,18,0.00
2013-4-28,87,75,66,71,62,-100,84,69,46,30.12,29.97,7,2,14,0.04
2013-4-29,88,74,64,70,65,59,85,74,50,30.03,29.93,7,2,17,0.04
2013-4-30,86,74,66,73,67,62,87,81,59,30.00,29.92,6,1,14,0.31
2013-5-1,78,70,67,73,66,63,88,87,82,30.01,29.88,9,1,30,1.87
2013-5-2,74,69,66,68,65,62,89,87,80,29.97,29.82,4,0,9,1.21
2013-5-3,86,74,64,71,66,60,89,77,52,29.86,29.72,7,1,14,0.01
2013-5-4,82,74,67,70,66,63,87,77,64,29.83,29.71,12,4,22,0.00
2013-5-5,81,72,63,66,58,47,84,63,33,29.98,29.80,8,3,17,0.00
2013-5-6,79,70,59,66,60,54,87,73,52,30.03,29.94,6,2,16,0.00
2013-5-7,80,68,57,62,58,53,87,73,54,30.08,30.00,8,2,19,0.00
2013-5-8,81,70,58,65,60,54,88,71,49,30.15,30.06,6,1,14,0.00
2013-5-9,88,72,58,65,59,54,88,67,31,30.16,30.08,4,1,8,0.00
2013-5-10,90,75,63,73,64,-100,87,74,51,30.14,30.01,6,1,13,0.00
2013-5-11,88,78,68,75,70,64,87,76,54,30.07,30.00,6,2,15,0.00
2013-5-12,87,79,72,75,70,-100,88,78,64,30.06,29.94,8,2,18,0.00
2013-5-13,89,77,68,70,66,52,86,69,47,30.13,30.01,6,1,12,0.00
2013-5-14,85,72,59,59,55,51,84,59,31,30.20,30.10,8,2,15,0.00
2013-5-15,85,76,63,62,59,57,82,58,40,30.20,30.09,7,2,15,0.00
2013-5-16,87,70,62,65,39,-100,86,62,37,30.13,30.01,5,1,11,0.00
2013-5-17,90,76,65,71,57,-100,86,66,39,30.09,30.03,6,1,12,0.00
2013-5-18,92,80,68,71,67,64,88,67,43,30.11,30.01,6,1,11,0.00
2013-5-19,91,78,69,72,69,65,86,75,51,30.10,29.98,8,1,15,0.03
2013-5-20,92,76,69,74,68,64,88,78,43,30.08,29.97,9,1,23,0.20
2013-5-21,92,75,67,73,67,63,88,79,48,30.03,29.90,9,2,18,0.20
2013-5-22,90,77,68,74,69,63,88,76,54,29.96,29.89,8,1,14,0.01
2013-5-23,90,79,68,72,69,64,88,74,53,30.03,29.93,5,2,13,0.00
2013-5-24,94,81,71,73,68,62,88,68,37,30.08,29.98,8,1,16,0.00
2013-5-25,90,78,66,73,66,61,86,69,46,30.16,30.05,9,3,15,0.00
2013-5-26,88,77,64,66,62,57,84,64,35,30.20,30.10,8,2,14,0.00
2013-5-27,90,76,65,70,63,-100,85,69,45,30.18,30.04,9,3,17,0.00
2013-5-28,86,77,70,73,70,65,87,78,61,30.13,30.02,9,3,17,0.00
2013-5-29,85,76,70,74,69,66,88,79,62,30.10,30.01,14,3,25,0.12
2013-5-30,86,78,71,75,70,66,85,79,65,30.07,29.98,11,4,19,0.12
2013-5-31,87,79,73,75,71,68,86,78,61,30.06,29.99,8,3,16,0.03
2013-6-1,89,77,73,75,71,68,88,82,60,30.04,29.96,7,1,13,1.51
2013-6-2,90,80,72,76,70,-100,89,77,56,30.01,29.92,9,2,18,0.02
2013-6-3,85,78,74,75,72,70,87,83,71,30.02,29.93,7,1,15,0.09
2013-6-4,82,77,73,74,71,68,88,84,77,30.04,29.96,8,1,17,0.02
2013-6-5,79,77,76,74,72,71,88,85,80,30.02,29.87,7,2,14,0.17
2013-6-6,80,76,71,75,71,67,88,86,82,29.89,29.76,14,4,32,2.35
2013-6-7,83,78,74,76,72,70,89,83,69,29.98,29.82,4,1,15,0.15
2013-6-8,89,80,75,78,73,70,87,81,66,30.11,29.97,7,2,21,0.00
2013-6-9,93,81,74,76,73,70,88,77,50,30.11,30.01,6,2,17,0.00
2013-6-10,92,81,74,76,71,-100,88,76,50,30.09,30.01,7,1,21,0.00
2013-6-11,93,82,75,77,74,69,88,77,55,30.09,29.99,7,1,19,0.18
2013-6-12,93,78,72,76,70,67,86,78,53,30.10,30.01,6,1,14,1.11
2013-6-13,91,78,70,76,71,66,89,79,58,30.07,29.93,8,1,15,0.05
2013-6-14,90,81,72,76,72,68,88,77,56,29.98,29.89,7,2,14,0.00
2013-6-15,93,81,73,77,73,69,88,76,55,30.05,29.94,6,1,12,0.00
2013-6-16,92,84,76,78,74,71,85,75,54,30.10,30.02,7,1,15,0.05
2013-6-17,93,83,74,77,73,69,88,73,46,30.09,29.99,6,1,11,0.01
2013-6-18,93,83,74,77,74,70,87,75,54,30.08,29.97,7,1,13,0.09
2013-6-19,93,80,73,78,73,68,88,80,54,30.06,29.99,8,1,17,0.60
2013-6-20,89,81,72,77,73,67,87,77,62,30.14,30.06,6,1,14,1.87
2013-6-22,94,88,81,74,70,65,77,56,41,30.12,30.02,6,2,11,0.00
2013-6-23,90,80,74,76,72,69,86,79,56,30.14,30.06,10,1,19,0.04
2013-6-24,91,79,74,75,72,69,86,78,54,30.17,30.07,7,1,12,0.42
2013-6-25,93,80,73,75,71,69,86,76,47,30.14,30.03,4,1,9,0.01
2013-6-26,89,78,75,77,72,70,87,82,62,30.09,30.02,4,1,9,0.59
2013-6-27,91,77,71,77,70,67,88,81,51,30.06,29.95,4,0,16,0.01
2013-6-28,89,81,74,76,73,69,87,77,62,30.00,29.88,7,1,12,0.01
2013-6-29,90,82,76,76,74,71,86,75,59,29.93,29.83,7,2,16,0.01
2013-6-30,89,80,74,77,74,69,87,80,65,29.92,29.84,9,2,22,0.34
2013-7-1,86,75,71,77,70,67,88,86,73,30.01,29.91,8,1,23,2.81
2013-7-2,84,76,71,77,71,67,88,86,79,30.10,29.98,8,1,16,1.82
2013-7-3,89,77,73,77,72,69,87,84,65,30.13,30.06,7,1,21,0.48
2013-7-4,89,82,75,77,75,70,85,78,64,30.13,30.06,10,2,26,0.25
2013-7-5,78,77,76,73,72,72,87,86,85,30.12,30.06,3,0,9,0.55
2013-7-6,91,82,75,77,73,71,88,76,54,30.12,30.01,8,2,15,0.50
2013-7-7,90,82,75,78,73,71,86,77,60,30.12,30.02,11,2,22,0.28
2013-7-8,91,78,75,75,70,-100,87,80,56,30.14,30.08,7,1,13,0.01
2013-7-9,87,79,73,75,71,68,87,77,58,30.15,30.06,5,1,10,0.04
2013-7-10,87,76,73,76,67,-100,87,78,63,30.10,29.99,5,1,11,0.15
2013-7-11,88,81,75,76,73,71,86,76,62,30.04,29.94,5,1,10,0.01
2013-7-12,88,80,74,76,72,70,87,79,64,29.97,29.91,6,1,11,0.05
2013-7-13,85,77,73,77,71,69,87,83,70,30.00,29.92,8,1,15,0.71
2013-7-14,83,77,73,75,71,69,87,84,70,30.09,29.97,7,2,17,0.04
2013-7-15,87,75,72,75,70,67,87,83,65,30.10,30.02,7,1,14,0.62
2013-7-16,86,77,73,74,71,68,87,83,64,30.14,30.06,7,1,15,0.88
2013-7-17,86,81,75,75,66,-100,87,73,65,30.14,30.04,5,3,14,0.02
2013-7-18,81,74,72,74,70,68,88,86,79,30.13,30.06,4,0,9,0.84
2013-7-19,88,75,71,76,70,67,88,84,67,30.13,30.05,6,1,11,0.39
2013-7-20,91,78,74,79,70,-100,88,80,64,30.11,30.03,6,1,11,0.59
2013-7-21,88,80,74,79,74,70,88,82,70,30.15,30.05,6,1,13,0.01
2013-7-22,91,79,75,78,73,70,87,82,62,30.15,30.08,6,1,11,0.01
2013-7-23,91,83,76,78,75,72,88,77,63,30.12,30.00,6,1,13,0.00
2013-7-24,90,83,75,76,73,70,86,73,55,30.04,29.94,8,3,16,0.00
2013-7-25,88,80,77,77,71,-100,84,77,68,30.03,29.92,6,2,14,0.00
2013-7-26,92,82,75,77,75,71,86,77,59,30.03,29.96,6,1,15,0.28
2013-7-27,93,85,78,78,75,73,86,73,54,30.01,29.93,8,1,16,0.01
2013-7-28,92,83,76,77,73,69,87,73,47,30.07,29.96,8,1,13,0.00
2013-7-29,93,78,74,77,72,69,86,80,52,30.16,30.03,4,0,9,0.35
2013-7-30,88,80,74,79,74,70,88,83,71,30.17,30.08,3,0,8,0.04
2013-7-31,91,80,75,77,73,71,88,81,60,30.14,30.02,4,1,11,0.01
2013-8-1,95,78,73,75,71,68,88,80,48,30.06,29.93,4,0,13,0.21
2013-8-2,91,81,73,76,73,69,88,76,57,30.06,29.94,5,0,12,0.21
2013-8-3,90,80,76,78,74,71,87,82,64,30.12,30.03,7,1,16,0.00
2013-8-4,92,83,76,79,76,72,88,78,61,30.11,30.02,8,2,16,0.01
2013-8-5,92,83,77,79,72,-100,88,78,63,30.06,29.95,7,1,14,0.09
2013-8-6,92,80,75,79,74,70,87,82,64,30.01,29.91,4,0,15,1.05
2013-8-7,93,80,75,78,74,71,88,81,57,29.98,29.91,6,1,14,0.12
2013-8-8,92,79,75,77,73,70,87,82,56,30.02,29.93,5,1,11,0.21
2013-8-9,90,78,71,77,72,67,87,82,57,30.06,29.96,8,1,17,2.12
2013-8-10,93,84,74,78,73,70,87,70,51,30.12,30.03,7,2,13,0.12
2013-8-11,95,84,76,78,73,-100,86,72,49,30.14,30.04,6,2,13,0.00
2013-8-12,93,80,74,76,72,68,87,77,45,30.14,30.01,6,0,12,0.00
2013-8-13,93,81,74,78,70,-100,87,74,57,30.07,29.95,6,1,11,0.46
2013-8-14,92,80,79,77,64,-100,84,69,52,30.03,29.93,5,1,12,0.87
2013-8-21,91,80,76,78,74,70,87,81,63,30.09,29.99,6,1,14,0.10
2013-8-22,92,80,73,79,73,68,87,81,58,30.06,29.98,8,2,13,0.71
2013-8-23,92,79,73,78,73,69,89,83,56,30.03,29.95,5,0,8,1.79
2013-8-24,94,81,75,77,73,70,89,78,50,30.14,30.00,5,1,13,0.55
2013-8-25,88,76,74,77,70,-100,87,82,68,30.15,30.04,6,1,11,0.52
2013-8-26,92,79,73,77,72,68,88,81,55,30.14,30.01,6,1,12,0.51
2013-8-27,88,77,73,75,71,69,89,83,62,30.06,30.00,5,1,10,0.80
2013-8-29,93,81,73,77,69,-100,87,75,51,30.05,29.94,5,1,10,0.11
2013-8-30,91,80,74,77,73,70,87,80,60,30.01,29.91,6,0,15,0.02
2013-8-31,91,81,73,77,73,69,87,77,59,29.99,29.91,7,2,14,0.02
2013-9-1,92,77,72,79,69,-100,87,79,63,30.01,29.94,6,0,15,1.24
2013-9-2,87,77,73,79,72,69,88,84,70,30.03,29.95,7,1,12,0.69
2013-9-3,89,80,74,77,73,70,88,80,63,30.04,29.95,5,0,12,0.11
2013-9-4,93,81,76,78,74,70,86,80,58,30.07,29.96,4,1,10,0.05
2013-9-5,94,86,77,78,75,71,88,71,49,30.09,29.99,4,1,10,0.03
2013-9-6,95,83,75,78,74,70,87,75,49,30.06,29.92,10,0,20,0.03
2013-9-7,91,78,73,77,72,69,89,81,57,30.01,29.91,6,1,14,1.41
2013-9-8,93,78,72,76,68,-100,89,76,47,29.97,29.86,4,0,10,0.04
2013-9-9,92,82,75,77,70,-100,87,73,51,30.02,29.91,5,1,16,0.03
2013-9-10,91,81,75,76,73,70,86,76,57,30.06,29.98,8,3,15,0.21
2013-9-11,88,80,75,76,73,70,86,80,65,30.05,29.98,7,2,16,0.05
2013-9-12,89,79,73,76,72,69,88,80,57,30.03,29.89,8,1,18,1.57
2013-9-13,91,79,72,76,72,69,89,79,56,29.92,29.81,4,0,8,1.60
2013-9-14,78,76,74,74,72,70,88,87,85,29.90,29.85,0,0,0,0.03
2013-9-28,90,86,83,73,72,70,70,63,54,29.93,29.90,9,5,16,0.00
2013-9-29,90,83,76,72,70,67,83,65,51,29.98,29.88,6,2,11,0.00
2013-9-30,91,80,71,74,70,64,88,74,43,30.01,29.90,7,1,13,0.30
2013-10-1,82,78,74,72,71,70,86,79,71,30.04,30.01,3,0,7,0.01
2013-10-2,89,80,73,75,71,68,86,75,56,30.05,29.96,8,2,16,0.01
2013-10-3,88,78,74,76,72,69,87,81,65,30.06,29.96,7,1,18,0.02
2013-10-4,89,80,74,74,72,70,88,76,55,30.08,30.01,3,1,9,0.02
2013-10-5,90,84,77,72,71,67,82,66,49,30.03,29.93,3,0,8,0.00
2013-10-6,90,79,71,75,71,67,88,77,56,29.99,29.88,5,1,11,0.00
2013-10-7,86,78,73,78,70,-100,87,82,72,29.90,29.81,8,2,23,1.11
2013-10-8,88,79,73,75,71,69,88,78,62,29.95,29.85,9,2,14,0.39
2013-10-9,84,78,73,72,71,68,86,78,65,30.03,29.93,6,1,12,0.00
2013-10-10,88,77,67,72,68,63,88,75,53,30.06,29.96,6,1,12,0.00
2013-10-18,91,79,71,74,70,67,88,75,51,30.00,29.90,2,0,9,0.00
2013-10-19,89,81,74,76,73,69,85,77,61,29.97,29.87,6,1,10,0.00
2013-10-20,91,80,74,76,70,-100,89,76,57,29.97,29.88,4,0,9,0.00
2013-10-21,91,80,71,77,70,-100,89,77,60,30.01,29.92,7,1,11,0.00
2013-10-22,89,80,73,77,73,69,88,80,62,29.97,29.84,7,1,18,0.05
2013-10-23,83,76,69,73,68,56,88,76,60,30.00,29.83,9,2,15,0.14
2013-10-24,74,69,65,63,58,52,82,69,59,30.15,30.00,6,2,14,0.14
2013-10-25,81,73,62,63,60,57,85,66,51,30.22,30.13,6,1,15,0.00
2013-10-26,84,70,60,64,58,52,85,69,34,30.20,30.08,5,1,10,0.00
2013-10-27,84,69,58,63,56,-100,86,67,40,30.12,30.04,5,1,11,0.00
2013-10-28,84,71,61,65,59,-100,87,72,47,30.17,30.09,6,1,13,0.00
2013-10-29,86,74,64,68,64,59,85,73,52,30.21,30.10,8,2,14,0.00
2013-10-30,86,74,66,68,64,62,87,73,45,30.21,30.07,7,2,14,0.00
2013-11-6,86,76,69,70,67,64,85,74,55,30.09,29.99,7,2,15,0.00
2013-11-7,84,74,65,72,63,-100,88,77,62,30.05,29.96,6,1,11,0.00
2013-11-8,82,73,65,69,65,61,87,78,61,30.09,29.99,8,3,19,0.00
2013-11-9,82,72,65,71,64,-100,85,79,68,30.13,30.06,9,3,17,0.00
2013-11-10,86,75,68,71,66,63,86,76,57,30.15,30.05,7,2,13,0.00
2013-11-11,86,75,67,70,66,62,87,74,50,30.14,30.05,6,2,13,0.00
2013-11-12,84,74,66,69,66,62,89,76,56,30.11,29.99,4,1,12,0.00
2013-11-13,72,66,59,66,55,-100,85,72,63,30.26,30.05,12,6,27,0.00
2013-11-14,78,66,55,60,56,51,85,72,47,30.26,30.14,10,2,19,0.00
2013-11-15,80,72,62,68,63,57,84,76,65,30.17,30.03,8,2,15,0.00
2013-11-16,78,71,69,71,64,-100,87,80,70,30.10,30.03,6,1,12,0.20
2013-11-17,88,76,68,72,67,63,87,76,50,30.08,29.99,6,1,15,0.07
2013-11-18,88,75,66,72,67,62,88,79,57,30.04,29.94,4,1,10,0.00
2013-11-23,86,73,65,70,63,-100,86,75,58,30.11,29.98,7,1,13,0.00
2013-11-24,78,69,63,67,63,58,87,81,67,30.18,30.02,9,4,21,0.00
2013-11-25,77,69,63,64,61,58,84,76,58,30.20,30.06,9,4,21,0.00
2013-11-26,85,75,68,73,69,63,88,81,63,30.05,29.81,10,3,23,0.23
2013-11-27,75,69,52,70,60,46,87,75,54,30.19,29.78,11,4,23,0.12
2013-11-28,62,50,40,53,44,36,86,78,60,30.31,30.19,6,2,11,0.01
2013-11-29,76,64,52,60,55,48,86,73,57,30.32,30.21,11,4,20,0.00
2013-12-5,84,72,63,70,64,59,88,78,56,30.17,30.07,7,1,13,0.00
2013-12-6,86,74,64,72,67,60,89,79,58,30.19,30.08,8,2,16,0.00
2013-12-7,86,72,62,69,61,-100,88,74,53,30.23,30.13,4,0,10,0.00
2013-12-8,86,74,65,70,65,61,89,75,51,30.22,30.10,6,1,17,0.00
2013-12-9,85,74,64,72,65,60,88,77,53,30.19,30.08,7,1,14,0.00
2013-12-10,85,72,61,71,64,57,89,78,55,30.17,30.09,6,1,11,0.00
2013-12-11,84,76,66,70,67,62,88,74,60,30.23,30.14,4,1,10,0.00
2013-12-12,73,66,56,65,59,44,89,77,58,30.27,30.17,7,2,13,0.00
2013-12-13,78,64,51,62,54,44,86,71,56,30.25,30.10,6,2,15,0.00
2013-12-14,85,76,73,72,65,-100,85,73,60,30.09,29.97,7,3,15,0.00
2013-12-15,79,74,67,73,68,60,88,83,74,30.11,29.93,5,2,13,0.25
2013-12-16,70,61,52,60,54,47,85,77,49,30.21,30.10,5,1,10,0.01
2013-12-17,78,60,47,61,52,43,86,77,52,30.24,30.13,5,1,10,0.00
2013-12-18,74,59,49,52,47,42,86,67,32,30.29,30.19,4,1,9,0.00
2013-12-19,77,58,46,59,50,42,86,75,49,30.26,30.18,6,2,16,0.00